Regional Weather Roundup
Issued by NWS

Home | Current Version | Previous Version | Text Only | Print | Product List | Glossary Off
Versions: 1 2 3 4 5 6 7 8 9 10 11 12 13 14 15 16 17 18 19 20 21 22 23 24 25 26 27 28 29 30 31 32 33 34 35 36 37 38 39 40 41 42 43 44 45 46 47 48 49 50

000
ASUS45 KCYS 200610
RWRWY

WYOMING REGIONAL WEATHER ROUNDUP
NATIONAL WEATHER SERVICE CHEYENNE WY
1200 AM MDT MON OCT 20 2014

NOTE:  "FAIR" INDICATES FEW OR NO CLOUDS BELOW 12,000 FEET
WITH NO SIGNIFICANT WEATHER AND/OR OBSTRUCTIONS TO VISIBILITY.

WYZ001-200700-
YELLOWSTONE NATIONAL PARK

CITY           SKY/WX    TMP DP  RH WIND       PRES   REMARKS
LK YELLOWSTONE   N/A     28  20  71 NW3       30.24S
6HR MIN TEMP:  27; 6HR MAX TEMP:  53;

W YELLOWSTONE  NOT AVBL

$$
WYZ002>013-054>058-071-098>099-200700-
NORTHERN WYOMING

CITY           SKY/WX    TMP DP  RH WIND       PRES   REMARKS
JACKSON        CLEAR     34  27  75 N6        30.18R WCI  29
CODY           CLEAR    N/A N/A N/A CALM      30.06S
GREYBULL       CLEAR     43  28  55 W5        30.02R
6HR MIN TEMP:  43; 6HR MAX TEMP:  70;

WORLAND        CLEAR     44  28  53 S7        30.02S
6HR MIN TEMP:  41; 6HR MAX TEMP:  69;

SHERIDAN       CLEAR     38  31  76 CALM      30.01F
6HR MIN TEMP:  37; 6HR MAX TEMP:  67;

BUFFALO        CLEAR     54  30  40 SW7       30.08S
6HR MIN TEMP:  51; 6HR MAX TEMP:  65;

GILLETTE       CLEAR     52  35  52 S14       30.06F
6HR MIN TEMP:  44; 6HR MAX TEMP:  60;

HULETT         FAIR      48  37  66 S3        30.09
NEWCASTLE      FAIR      45  34  65 CALM      30.11

$$
WYZ014>020-022>026-101>103-200700-
CENTRAL WYOMING

CITY           SKY/WX    TMP DP  RH WIND       PRES   REMARKS
BIG PINEY      PTCLDY    33  23  66 NW3       30.22R
6HR MIN TEMP:  30; 6HR MAX TEMP:  62;

PINEDALE       CLEAR     30  27  86 NW7       30.22R WCI  23
DUBOIS         FAIR      36  18  48 W10       30.20S WCI  28
LANDER         CLEAR     50  26  39 W9        30.10R
6HR MIN TEMP:  47; 6HR MAX TEMP:  67;

RIVERTON       CLEAR     46  31  55 NW12      30.11R
6HR MIN TEMP:  45; 6HR MAX TEMP:  64;

CASPER         CLEAR     37  30  75 CALM      30.12S
6HR MIN TEMP:  34; 6HR MAX TEMP:  63;

DOUGLAS        CLEAR     46  33  60 SE10      30.14S
6HR MIN TEMP:  45; 6HR MAX TEMP:  65;


$$
WYZ021-027>030-104>119-200700-
SOUTHERN WYOMING

CITY           SKY/WX    TMP DP  RH WIND       PRES   REMARKS
EVANSTON       FAIR      48  27  44 SE7       30.19S
6HR MIN TEMP:  46; 6HR MAX TEMP:  65;

KEMMERER       CLEAR     37  28  70 N10       30.22R WCI  30
FORT BRIDGER   FAIR      53  29  39 W5        30.22S
ROCK SPRINGS   CLEAR     50  27  40 CALM      30.18S
6HR MIN TEMP:  48; 6HR MAX TEMP:  63;

DIXON          FAIR      43  31  62 NE5       30.21S
RAWLINS        CLEAR     39  25  57 N5        30.19F
6HR MIN TEMP:  37; 6HR MAX TEMP:  63;

SARATOGA       FAIR      34  28  80 CALM      30.22S
LARAMIE        CLEAR     39  31  72 S10       30.23S WCI  32
6HR MIN TEMP:  36; 6HR MAX TEMP:  60;

CHEYENNE       CLEAR     42  33  70 W8        30.21S
6HR MIN TEMP:  41; 6HR MAX TEMP:  64;

TORRINGTON     CLEAR     45  35  68 NW3       30.12S
6HR MIN TEMP:  43; 6HR MAX TEMP:  67;

PINE BLUFFS    FAIR      37  32  81 W8        30.18R WCI  31

$$



USA.gov is the U.S. government's official web portal to all federal, state and local government web resources and services.